Time,TemperatureF,DewpointF,PressureIn,WindDirection,WindDirectionDegrees,WindSpeedMPH,WindSpeedGustMPH,Humidity,HourlyPrecipIn,Conditions,Clouds,dailyrainin,SoftwareType,DateUTC
2013-01-19 00:04:00,46.6,32.2,30.00,South,175,4.0,15.0,57,0.00,,,0.00,meteohub,2013-01-19 06:04:00,
2013-01-19 00:09:00,46.6,32.2,30.00,SSW,199,4.0,15.0,57,0.00,,,0.00,meteohub,2013-01-19 06:09:00,
2013-01-19 00:14:00,46.6,32.2,30.00,SSW,207,4.0,15.0,57,0.00,,,0.00,meteohub,2013-01-19 06:14:00,
2013-01-19 00:19:00,46.6,32.2,30.00,SW,229,6.0,15.0,57,0.00,,,0.00,meteohub,2013-01-19 06:19:00,
2013-01-19 00:24:00,46.4,32.0,30.00,SW,218,13.0,15.0,57,0.00,,,0.00,meteohub,2013-01-19 06:24:00,
2013-01-19 00:29:00,46.6,32.2,29.99,South,178,8.0,15.0,57,0.00,,,0.00,meteohub,2013-01-19 06:29:00,
2013-01-19 00:34:00,46.6,32.2,30.00,SSW,204,10.0,17.0,57,0.00,,,0.00,meteohub,2013-01-19 06:34:00,
2013-01-19 00:39:00,46.6,32.2,30.00,SSW,193,8.0,17.0,57,0.00,,,0.00,meteohub,2013-01-19 06:39:00,
2013-01-19 00:44:00,46.6,32.2,30.00,SW,226,9.0,17.0,57,0.00,,,0.00,meteohub,2013-01-19 06:44:00,
2013-01-19 00:49:00,46.4,32.0,30.00,South,175,10.0,17.0,57,0.00,,,0.00,meteohub,2013-01-19 06:49:00,
2013-01-19 00:54:00,46.2,31.8,29.99,SSE,168,18.0,18.0,57,0.00,,,0.00,meteohub,2013-01-19 06:54:00,
2013-01-19 00:59:00,46.2,31.8,29.99,South,188,10.0,18.0,57,0.00,,,0.00,meteohub,2013-01-19 06:59:00,
2013-01-19 01:04:00,46.2,32.2,29.99,SW,221,5.0,18.0,58,0.00,,,0.00,meteohub,2013-01-19 07:04:00,
2013-01-19 01:09:00,46.0,32.0,29.99,SW,221,11.0,18.0,58,0.00,,,0.00,meteohub,2013-01-19 07:09:00,
2013-01-19 01:14:00,45.9,32.0,29.99,WSW,238,7.0,19.0,58,0.00,,,0.00,meteohub,2013-01-19 07:14:00,
2013-01-19 01:19:00,45.9,32.0,29.99,SSW,209,7.0,19.0,58,0.00,,,0.00,meteohub,2013-01-19 07:19:00,
2013-01-19 01:24:00,45.9,32.0,29.99,WSW,242,12.0,20.0,58,0.00,,,0.00,meteohub,2013-01-19 07:24:00,
2013-01-19 01:29:00,45.9,33.3,29.99,SW,223,7.0,20.0,61,0.00,,,0.00,meteohub,2013-01-19 07:29:00,
2013-01-19 01:34:00,45.9,32.0,29.99,WSW,252,13.0,20.0,58,0.00,,,0.00,meteohub,2013-01-19 07:34:00,
2013-01-19 01:39:00,45.9,32.0,29.99,SW,230,13.0,18.0,58,0.00,,,0.00,meteohub,2013-01-19 07:39:00,
2013-01-19 01:44:00,46.0,32.0,29.99,SSW,213,14.0,18.0,58,0.00,,,0.00,meteohub,2013-01-19 07:44:00,
2013-01-19 01:49:00,45.9,32.0,29.99,South,176,4.0,18.0,58,0.00,,,0.00,meteohub,2013-01-19 07:49:00,
2013-01-19 01:54:00,45.9,32.0,29.99,SW,227,10.0,19.0,58,0.00,,,0.00,meteohub,2013-01-19 07:54:00,
2013-01-19 01:59:00,45.7,32.2,29.99,SSW,196,9.0,19.0,59,0.00,,,0.00,meteohub,2013-01-19 07:59:00,
2013-01-19 02:04:00,45.7,32.2,29.99,South,171,5.0,19.0,59,0.00,,,0.00,meteohub,2013-01-19 08:04:00,
2013-01-19 02:09:00,45.7,32.2,29.99,SW,219,10.0,19.0,59,0.00,,,0.00,meteohub,2013-01-19 08:09:00,
2013-01-19 02:14:00,45.7,32.2,29.99,SSW,202,10.0,20.0,59,0.00,,,0.00,meteohub,2013-01-19 08:14:00,
2013-01-19 02:19:00,45.5,32.0,29.99,SW,214,7.0,20.0,59,0.00,,,0.00,meteohub,2013-01-19 08:19:00,
2013-01-19 02:24:00,45.5,32.0,29.99,SSW,194,8.0,20.0,59,0.00,,,0.00,meteohub,2013-01-19 08:24:00,
2013-01-19 02:29:00,45.3,31.8,29.99,SW,221,10.0,17.0,59,0.00,,,0.00,meteohub,2013-01-19 08:29:00,
2013-01-19 02:34:00,45.3,32.2,29.99,SSW,197,11.0,17.0,60,0.00,,,0.00,meteohub,2013-01-19 08:34:00,
2013-01-19 02:39:00,45.3,32.2,29.99,SSW,192,12.0,17.0,60,0.00,,,0.00,meteohub,2013-01-19 08:39:00,
2013-01-19 02:44:00,45.1,32.0,29.99,South,177,6.0,22.0,60,0.00,,,0.00,meteohub,2013-01-19 08:44:00,
2013-01-19 02:49:00,45.0,32.0,29.99,SSW,205,10.0,22.0,60,0.00,,,0.00,meteohub,2013-01-19 08:49:00,
2013-01-19 02:54:00,45.0,32.0,29.99,ESE,114,9.0,22.0,60,0.00,,,0.00,meteohub,2013-01-19 08:54:00,
2013-01-19 02:59:00,45.0,32.4,29.99,SW,222,10.0,19.0,61,0.00,,,0.00,meteohub,2013-01-19 08:59:00,
2013-01-19 03:04:00,45.0,32.4,29.99,SSW,207,10.0,19.0,61,0.00,,,0.00,meteohub,2013-01-19 09:04:00,
2013-01-19 03:09:00,45.0,32.4,29.99,SSE,167,12.0,19.0,61,0.00,,,0.00,meteohub,2013-01-19 09:09:00,
2013-01-19 03:14:00,44.8,32.2,29.99,SSW,197,9.0,21.0,61,0.00,,,0.00,meteohub,2013-01-19 09:14:00,
2013-01-19 03:19:00,44.8,32.2,29.98,SSW,210,14.0,21.0,61,0.00,,,0.00,meteohub,2013-01-19 09:19:00,
2013-01-19 03:24:00,44.8,32.2,29.98,SSW,210,7.0,21.0,61,0.00,,,0.00,meteohub,2013-01-19 09:24:00,
2013-01-19 03:29:00,44.8,32.2,29.98,SW,219,16.0,21.0,61,0.00,,,0.00,meteohub,2013-01-19 09:29:00,
2013-01-19 03:34:00,44.8,32.2,29.98,SSW,202,5.0,21.0,61,0.00,,,0.00,meteohub,2013-01-19 09:34:00,
2013-01-19 03:39:00,44.8,32.2,29.98,SE,139,1.0,21.0,61,0.00,,,0.00,meteohub,2013-01-19 09:39:00,
2013-01-19 03:44:00,44.8,32.2,29.97,SSW,208,13.0,17.0,61,0.00,,,0.00,meteohub,2013-01-19 09:44:00,
2013-01-19 03:49:00,44.8,32.2,29.97,SSW,193,8.0,17.0,61,0.00,,,0.00,meteohub,2013-01-19 09:49:00,
2013-01-19 03:54:00,44.8,32.5,29.96,SW,227,12.0,17.0,62,0.00,,,0.00,meteohub,2013-01-19 09:54:00,
2013-01-19 03:59:00,44.8,32.5,29.96,SSW,211,4.0,19.0,62,0.00,,,0.00,meteohub,2013-01-19 09:59:00,
2013-01-19 04:04:00,44.8,32.5,29.96,SW,236,8.0,19.0,62,0.00,,,0.00,meteohub,2013-01-19 10:04:00,
2013-01-19 04:09:00,44.8,32.5,29.96,SSW,205,6.0,19.0,62,0.00,,,0.00,meteohub,2013-01-19 10:09:00,
2013-01-19 04:14:00,44.6,32.4,29.96,SW,234,10.0,19.0,62,0.00,,,0.00,meteohub,2013-01-19 10:14:00,
2013-01-19 04:19:00,44.4,32.2,29.95,SSW,200,10.0,19.0,62,0.00,,,0.00,meteohub,2013-01-19 10:19:00,
2013-01-19 04:24:00,44.4,32.2,29.96,SW,223,15.0,19.0,62,0.00,,,0.00,meteohub,2013-01-19 10:24:00,
2013-01-19 04:29:00,44.4,32.2,29.95,SSW,192,7.0,19.0,62,0.00,,,0.00,meteohub,2013-01-19 10:29:00,
2013-01-19 04:34:00,44.2,32.0,29.95,SSW,196,11.0,19.0,62,0.00,,,0.00,meteohub,2013-01-19 10:34:00,
2013-01-19 04:39:00,44.2,32.0,29.95,WSW,257,6.0,19.0,62,0.00,,,0.00,meteohub,2013-01-19 10:39:00,
2013-01-19 04:44:00,44.2,32.0,29.95,SSW,204,11.0,18.0,62,0.00,,,0.00,meteohub,2013-01-19 10:44:00,
2013-01-19 04:49:00,44.2,32.0,29.95,South,183,12.0,18.0,62,0.00,,,0.00,meteohub,2013-01-19 10:49:00,
2013-01-19 04:54:00,44.2,32.4,29.95,SSE,167,12.0,18.0,63,0.00,,,0.00,meteohub,2013-01-19 10:54:00,
2013-01-19 04:59:00,44.1,32.4,29.95,SW,214,12.0,18.0,63,0.00,,,0.00,meteohub,2013-01-19 10:59:00,
2013-01-19 05:04:00,44.1,32.4,29.95,SW,236,9.0,23.0,63,0.00,,,0.00,meteohub,2013-01-19 11:04:00,
2013-01-19 05:09:00,44.1,32.4,29.95,SW,230,7.0,23.0,63,0.00,,,0.00,meteohub,2013-01-19 11:09:00,
2013-01-19 06:47:00,42.4,31.8,29.96,WNW,290,3.0,20.0,66,0.00,,,0.00,meteohub,2013-01-19 12:47:00,
2013-01-19 06:49:00,42.3,31.6,29.96,SW,235,12.0,20.0,66,0.00,,,0.00,meteohub,2013-01-19 12:49:00,
2013-01-19 06:54:00,42.3,31.6,29.96,SW,225,11.0,20.0,66,0.00,,,0.00,meteohub,2013-01-19 12:54:00,
2013-01-19 06:59:00,42.1,32.0,29.96,SSW,205,7.0,20.0,67,0.00,,,0.00,meteohub,2013-01-19 12:59:00,
2013-01-19 07:04:00,42.1,32.0,29.96,WSW,254,9.0,20.0,67,0.00,,,0.00,meteohub,2013-01-19 13:04:00,
2013-01-19 07:09:00,41.9,31.8,29.96,South,180,11.0,20.0,67,0.00,,,0.00,meteohub,2013-01-19 13:09:00,
2013-01-19 07:14:00,41.7,31.6,29.97,SW,229,9.0,14.0,67,0.00,,,0.00,meteohub,2013-01-19 13:14:00,
2013-01-19 07:19:00,41.7,31.6,29.97,SW,233,9.0,14.0,67,0.00,,,0.00,meteohub,2013-01-19 13:19:00,
2013-01-19 07:24:00,41.7,32.0,29.97,South,187,7.0,14.0,68,0.00,,,0.00,meteohub,2013-01-19 13:24:00,
2013-01-19 07:29:00,41.7,32.0,29.97,SSW,197,11.0,14.0,68,0.00,,,0.00,meteohub,2013-01-19 13:29:00,
2013-01-19 07:34:00,41.7,32.0,29.97,WSW,240,11.0,14.0,68,0.00,,,0.00,meteohub,2013-01-19 13:34:00,
2013-01-19 07:39:00,41.7,32.0,29.97,SW,227,5.0,14.0,68,0.00,,,0.00,meteohub,2013-01-19 13:39:00,
2013-01-19 07:44:00,41.5,31.8,29.97,SSW,196,4.0,14.0,68,0.00,,,0.00,meteohub,2013-01-19 13:44:00,
2013-01-19 07:49:00,41.5,31.8,29.97,SSW,200,5.0,17.0,68,0.00,,,0.00,meteohub,2013-01-19 13:49:00,
2013-01-19 07:54:00,41.5,31.8,29.97,SW,217,4.0,17.0,68,0.00,,,0.00,meteohub,2013-01-19 13:54:00,
2013-01-19 07:59:00,41.5,31.8,29.97,WSW,242,6.0,17.0,68,0.00,,,0.00,meteohub,2013-01-19 13:59:00,
2013-01-19 08:04:00,41.5,31.8,29.97,SW,215,5.0,17.0,68,0.00,,,0.00,meteohub,2013-01-19 14:04:00,
2013-01-19 08:09:00,41.5,31.8,29.97,SSW,197,6.0,17.0,68,0.00,,,0.00,meteohub,2013-01-19 14:09:00,
2013-01-19 08:14:00,41.5,32.2,29.97,SSW,211,4.0,17.0,69,0.00,,,0.00,meteohub,2013-01-19 14:14:00,
2013-01-19 08:19:00,41.5,32.2,29.97,SSW,213,7.0,19.0,69,0.00,,,0.00,meteohub,2013-01-19 14:19:00,
2013-01-19 08:24:00,41.5,32.2,29.97,SSW,208,4.0,19.0,69,0.00,,,0.00,meteohub,2013-01-19 14:24:00,
2013-01-19 08:29:00,41.5,32.2,29.98,SW,221,9.0,19.0,69,0.00,,,0.00,meteohub,2013-01-19 14:29:00,
2013-01-19 08:34:00,41.5,32.2,29.98,SSW,199,14.0,19.0,69,0.00,,,0.00,meteohub,2013-01-19 14:34:00,
2013-01-19 08:39:00,41.5,31.8,29.98,South,190,12.0,19.0,68,0.00,,,0.00,meteohub,2013-01-19 14:39:00,
2013-01-19 08:44:00,41.7,32.0,29.98,WSW,254,5.0,17.0,68,0.00,,,0.00,meteohub,2013-01-19 14:44:00,
2013-01-19 08:49:00,41.9,32.2,29.98,West,266,4.0,17.0,68,0.00,,,0.00,meteohub,2013-01-19 14:49:00,
2013-01-19 08:54:00,42.1,32.4,29.99,SSW,196,9.0,17.0,68,0.00,,,0.00,meteohub,2013-01-19 14:54:00,
2013-01-19 08:59:00,42.3,32.5,29.99,SW,225,9.0,17.0,68,0.00,,,0.00,meteohub,2013-01-19 14:59:00,
2013-01-19 09:04:00,42.3,32.5,30.00,SSW,209,7.0,17.0,68,0.00,,,0.00,meteohub,2013-01-19 15:04:00,
2013-01-19 09:09:00,42.4,32.7,30.00,SW,227,2.0,14.0,68,0.00,,,0.00,meteohub,2013-01-19 15:09:00,
2013-01-19 09:14:00,42.6,32.4,30.01,SW,216,6.0,14.0,67,0.00,,,0.00,meteohub,2013-01-19 15:14:00,
2013-01-19 09:20:00,42.8,32.5,30.01,SW,225,9.0,14.0,67,0.00,,,0.00,meteohub,2013-01-19 15:20:00,
2013-01-19 09:25:00,43.2,32.9,30.01,South,169,3.0,14.0,67,0.00,,,0.00,meteohub,2013-01-19 15:25:00,
2013-01-19 09:30:00,43.3,32.7,30.01,South,184,2.0,14.0,66,0.00,,,0.00,meteohub,2013-01-19 15:30:00,
2013-01-19 09:35:00,43.7,33.1,30.01,West,264,5.0,10.0,66,0.00,,,0.00,meteohub,2013-01-19 15:35:00,
2013-01-19 09:40:00,44.1,33.1,30.02,SSW,207,6.0,10.0,65,0.00,,,0.00,meteohub,2013-01-19 15:40:00,
2013-01-19 09:45:00,44.2,32.9,30.01,SSW,209,9.0,10.0,64,0.00,,,0.00,meteohub,2013-01-19 15:45:00,
2013-01-19 09:50:00,44.6,32.7,30.01,SSW,213,6.0,10.0,63,0.00,,,0.00,meteohub,2013-01-19 15:50:00,
2013-01-19 09:55:00,45.0,33.1,30.01,SW,224,6.0,10.0,63,0.00,,,0.00,meteohub,2013-01-19 15:55:00,
2013-01-19 10:00:00,45.1,33.3,30.02,NW,304,3.0,13.0,63,0.00,,,0.00,meteohub,2013-01-19 16:00:00,
2013-01-19 10:05:00,45.5,32.9,30.02,WSW,238,1.0,13.0,61,0.00,,,0.00,meteohub,2013-01-19 16:05:00,
2013-01-19 10:10:00,45.9,33.3,30.02,SSW,196,2.0,13.0,61,0.00,,,0.00,meteohub,2013-01-19 16:10:00,
2013-01-19 10:15:00,46.4,32.9,30.02,SSW,200,3.0,13.0,59,0.00,,,0.00,meteohub,2013-01-19 16:15:00,
2013-01-19 10:20:00,46.8,32.7,30.02,West,264,5.0,10.0,58,0.00,,,0.00,meteohub,2013-01-19 16:20:00,
2013-01-19 10:25:00,47.1,33.1,30.02,SW,231,7.0,10.0,58,0.00,,,0.00,meteohub,2013-01-19 16:25:00,
2013-01-19 10:30:00,47.3,33.3,30.02,WSW,248,3.0,10.0,58,0.00,,,0.00,meteohub,2013-01-19 16:30:00,
2013-01-19 10:35:00,47.7,33.3,30.04,WSW,246,1.0,10.0,57,0.00,,,0.00,meteohub,2013-01-19 16:35:00,
2013-01-19 10:40:00,48.0,33.4,30.04,WNW,300,2.0,15.0,57,0.00,,,0.00,meteohub,2013-01-19 16:40:00,
2013-01-19 10:45:00,48.4,32.9,30.03,West,278,10.0,15.0,55,0.00,,,0.00,meteohub,2013-01-19 16:45:00,
2013-01-19 10:50:00,48.6,33.1,30.04,WNW,288,4.0,15.0,55,0.00,,,0.00,meteohub,2013-01-19 16:50:00,
2013-01-19 10:55:00,48.7,32.9,30.04,West,267,6.0,12.0,54,0.00,,,0.00,meteohub,2013-01-19 16:55:00,
2013-01-19 11:00:00,49.1,33.3,30.04,WNW,291,10.0,12.0,54,0.00,,,0.00,meteohub,2013-01-19 17:00:00,
2013-01-19 11:05:00,49.6,32.7,30.03,NW,304,4.0,12.0,52,0.00,,,0.00,meteohub,2013-01-19 17:05:00,
2013-01-19 11:10:00,49.8,32.9,30.03,WNW,282,3.0,12.0,52,0.00,,,0.00,meteohub,2013-01-19 17:10:00,
2013-01-19 11:17:00,50.4,32.4,30.02,WNW,289,3.0,14.0,50,0.00,,,0.00,meteohub,2013-01-19 17:17:00,
2013-01-19 11:22:00,51.1,33.1,30.02,WSW,242,6.0,14.0,50,0.00,,,0.00,meteohub,2013-01-19 17:22:00,
2013-01-19 11:27:00,51.3,32.7,30.03,West,280,6.0,14.0,49,0.00,,,0.00,meteohub,2013-01-19 17:27:00,
2013-01-19 11:32:00,51.4,32.4,30.03,SSW,206,4.0,12.0,48,0.00,,,0.00,meteohub,2013-01-19 17:32:00,
2013-01-19 11:37:00,51.8,32.7,30.03,SW,236,3.0,12.0,48,0.00,,,0.00,meteohub,2013-01-19 17:37:00,
2013-01-19 11:42:00,52.2,32.5,30.03,West,268,4.0,13.0,47,0.00,,,0.00,meteohub,2013-01-19 17:42:00,
2013-01-19 11:47:00,52.3,32.7,30.02,WSW,257,2.0,13.0,47,0.00,,,0.00,meteohub,2013-01-19 17:47:00,
2013-01-19 11:52:00,52.9,33.3,30.02,WNW,291,3.0,12.0,47,0.00,,,0.00,meteohub,2013-01-19 17:52:00,
2013-01-19 11:57:00,53.2,33.1,30.02,WNW,296,4.0,12.0,46,0.00,,,0.00,meteohub,2013-01-19 17:57:00,
2013-01-19 12:02:00,53.4,33.1,30.02,SW,235,6.0,12.0,46,0.00,,,0.00,meteohub,2013-01-19 18:02:00,
2013-01-19 12:07:00,53.6,32.7,30.02,West,269,6.0,12.0,45,0.00,,,0.00,meteohub,2013-01-19 18:07:00,
2013-01-19 12:13:00,53.8,32.9,30.02,WNW,298,5.0,12.0,45,0.00,,,0.00,meteohub,2013-01-19 18:13:00,
2013-01-19 12:18:00,54.1,32.7,30.01,SSW,210,5.0,12.0,44,0.00,,,0.00,meteohub,2013-01-19 18:18:00,
2013-01-19 12:23:00,54.5,33.1,30.01,NW,316,2.0,13.0,44,0.00,,,0.00,meteohub,2013-01-19 18:23:00,
2013-01-19 12:29:00,55.0,32.4,30.01,WNW,299,4.0,13.0,42,0.00,,,0.00,meteohub,2013-01-19 18:29:00,
2013-01-19 12:34:00,55.6,32.9,30.01,WSW,238,6.0,13.0,42,0.00,,,0.00,meteohub,2013-01-19 18:34:00,
2013-01-19 12:39:00,55.6,32.2,30.01,NW,305,5.0,13.0,41,0.00,,,0.00,meteohub,2013-01-19 18:39:00,
2013-01-19 12:47:00,56.3,31.6,30.01,WNW,284,3.0,12.0,39,0.00,,,0.00,meteohub,2013-01-19 18:47:00,
2013-01-19 12:52:00,56.7,31.3,30.01,WNW,300,3.0,12.0,38,0.00,,,0.00,meteohub,2013-01-19 18:52:00,
2013-01-19 13:00:00,57.0,30.4,30.01,NW,322,5.0,11.0,36,0.00,,,0.00,meteohub,2013-01-19 19:00:00,
2013-01-19 13:05:00,57.4,31.3,30.00,NW,311,3.0,11.0,37,0.00,,,0.00,meteohub,2013-01-19 19:05:00,
2013-01-19 13:12:00,57.6,30.7,30.00,NNE,15,1.0,10.0,36,0.00,,,0.00,meteohub,2013-01-19 19:12:00,
2013-01-19 13:17:00,57.9,31.1,30.00,NNW,327,2.0,10.0,36,0.00,,,0.00,meteohub,2013-01-19 19:17:00,
2013-01-19 13:22:00,58.5,31.6,30.00,NW,307,4.0,5.0,36,0.00,,,0.00,meteohub,2013-01-19 19:22:00,
2013-01-19 13:27:00,58.6,31.1,30.01,NW,315,6.0,6.0,35,0.00,,,0.00,meteohub,2013-01-19 19:27:00,
2013-01-19 13:32:00,58.5,30.9,30.01,NNW,330,6.0,11.0,35,0.00,,,0.00,meteohub,2013-01-19 19:32:00,
2013-01-19 13:37:00,58.5,31.6,30.01,NNW,343,1.0,11.0,36,0.00,,,0.00,meteohub,2013-01-19 19:37:00,
2013-01-19 13:43:00,58.6,31.1,30.00,NW,311,3.0,11.0,35,0.00,,,0.00,meteohub,2013-01-19 19:43:00,
2013-01-19 13:48:00,58.6,31.1,30.00,NW,314,5.0,11.0,35,0.00,,,0.00,meteohub,2013-01-19 19:48:00,
2013-01-19 13:53:00,58.6,31.1,30.00,NW,308,3.0,11.0,35,0.00,,,0.00,meteohub,2013-01-19 19:53:00,
2013-01-19 13:58:00,58.6,31.1,30.00,WNW,292,4.0,11.0,35,0.00,,,0.00,meteohub,2013-01-19 19:58:00,
2013-01-19 14:05:00,58.8,31.3,30.00,WNW,295,6.0,11.0,35,0.00,,,0.00,meteohub,2013-01-19 20:05:00,
2013-01-19 14:10:00,58.6,31.1,30.00,West,271,4.0,11.0,35,0.00,,,0.00,meteohub,2013-01-19 20:10:00,
2013-01-19 14:15:00,59.0,31.5,30.00,WSW,250,6.0,11.0,35,0.00,,,0.00,meteohub,2013-01-19 20:15:00,
2013-01-19 14:20:00,59.2,31.5,29.99,West,268,3.0,11.0,35,0.00,,,0.00,meteohub,2013-01-19 20:20:00,
2013-01-19 14:25:00,59.2,31.5,30.00,WNW,300,4.0,11.0,35,0.00,,,0.00,meteohub,2013-01-19 20:25:00,
2013-01-19 14:32:00,59.5,31.8,30.00,West,263,6.0,13.0,35,0.00,,,0.00,meteohub,2013-01-19 20:32:00,
2013-01-19 14:37:00,59.7,32.0,30.00,NW,309,6.0,13.0,35,0.00,,,0.00,meteohub,2013-01-19 20:37:00,
2013-01-19 14:46:00,59.9,32.2,29.99,NW,304,3.0,11.0,35,0.00,,,0.00,meteohub,2013-01-19 20:46:00,
2013-01-19 14:52:00,60.1,32.4,30.00,West,273,4.0,11.0,35,0.00,,,0.00,meteohub,2013-01-19 20:52:00,
2013-01-19 14:57:00,60.4,32.0,30.00,West,260,3.0,11.0,34,0.00,,,0.00,meteohub,2013-01-19 20:57:00,
2013-01-19 15:04:00,61.0,32.4,30.00,WSW,248,4.0,8.0,34,0.00,,,0.00,meteohub,2013-01-19 21:04:00,
2013-01-19 15:10:00,61.2,32.5,30.00,West,273,5.0,8.0,34,0.00,,,0.00,meteohub,2013-01-19 21:10:00,
2013-01-19 15:17:00,61.0,31.6,30.00,WNW,298,3.0,11.0,33,0.00,,,0.00,meteohub,2013-01-19 21:17:00,
2013-01-19 15:22:00,61.2,31.8,30.00,West,271,5.0,11.0,33,0.00,,,0.00,meteohub,2013-01-19 21:22:00,
2013-01-19 15:28:00,61.2,31.8,30.00,WNW,286,4.0,11.0,33,0.00,,,0.00,meteohub,2013-01-19 21:28:00,
2013-01-19 15:33:00,61.3,32.0,30.01,West,265,4.0,13.0,33,0.00,,,0.00,meteohub,2013-01-19 21:33:00,
2013-01-19 15:43:00,61.9,32.5,30.01,West,263,4.0,11.0,33,0.00,,,0.00,meteohub,2013-01-19 21:43:00,
2013-01-19 15:50:00,62.2,32.0,30.01,West,280,6.0,11.0,32,0.00,,,0.00,meteohub,2013-01-19 21:50:00,
2013-01-19 15:56:00,62.6,32.4,30.01,WNW,290,3.0,11.0,32,0.00,,,0.00,meteohub,2013-01-19 21:56:00,
2013-01-19 16:03:00,62.8,32.5,30.01,NW,313,5.0,7.0,32,0.00,,,0.00,meteohub,2013-01-19 22:03:00,
2013-01-19 16:08:00,63.0,31.8,30.01,WSW,256,3.0,7.0,31,0.00,,,0.00,meteohub,2013-01-19 22:08:00,
2013-01-19 16:16:00,63.1,32.0,30.01,West,279,3.0,7.0,31,0.00,,,0.00,meteohub,2013-01-19 22:16:00,
2013-01-19 16:23:00,63.5,30.7,30.02,West,273,9.0,9.0,29,0.00,,,0.00,meteohub,2013-01-19 22:23:00,
2013-01-19 16:28:00,63.3,29.7,30.02,West,279,5.0,18.0,28,0.00,,,0.00,meteohub,2013-01-19 22:28:00,
2013-01-19 16:33:00,63.3,29.7,30.02,West,265,12.0,18.0,28,0.00,,,0.00,meteohub,2013-01-19 22:33:00,
2013-01-19 16:38:00,63.1,29.5,30.02,WNW,292,3.0,18.0,28,0.00,,,0.00,meteohub,2013-01-19 22:38:00,
2013-01-19 16:44:00,63.1,29.5,30.02,North,355,8.0,15.0,28,0.00,,,0.00,meteohub,2013-01-19 22:44:00,
2013-01-19 16:49:00,62.8,30.0,30.03,NNW,329,13.0,15.0,29,0.00,,,0.00,meteohub,2013-01-19 22:49:00,
2013-01-19 16:56:00,62.4,29.7,30.04,WNW,289,12.0,17.0,29,0.00,,,0.00,meteohub,2013-01-19 22:56:00,
2013-01-19 17:02:00,61.5,29.8,30.04,NNW,332,9.0,17.0,30,0.00,,,0.00,meteohub,2013-01-19 23:02:00,
2013-01-19 17:08:00,61.3,31.3,30.05,NW,306,11.0,17.0,32,0.00,,,0.00,meteohub,2013-01-19 23:08:00,
2013-01-19 17:15:00,60.8,30.7,30.05,NW,310,7.0,18.0,32,0.00,,,0.00,meteohub,2013-01-19 23:15:00,
2013-01-19 17:20:00,59.9,30.0,30.06,NW,316,6.0,17.0,32,0.00,,,0.00,meteohub,2013-01-19 23:20:00,
2013-01-19 17:25:00,59.5,30.4,30.06,West,281,6.0,17.0,33,0.00,,,0.00,meteohub,2013-01-19 23:25:00,
2013-01-19 17:32:00,58.8,30.6,30.06,NW,312,9.0,14.0,34,0.00,,,0.00,meteohub,2013-01-19 23:32:00,
2013-01-19 17:37:00,58.5,30.2,30.07,NNW,334,10.0,14.0,34,0.00,,,0.00,meteohub,2013-01-19 23:37:00,
2013-01-19 17:43:00,57.9,30.4,30.07,WNW,290,5.0,14.0,35,0.00,,,0.00,meteohub,2013-01-19 23:43:00,
2013-01-19 17:50:00,57.6,30.7,30.07,NW,319,6.0,14.0,36,0.00,,,0.00,meteohub,2013-01-19 23:50:00,
2013-01-19 17:55:00,57.0,30.9,30.08,NW,317,7.0,14.0,37,0.00,,,0.00,meteohub,2013-01-19 23:55:00,
2013-01-19 18:01:00,56.7,31.3,30.09,WNW,286,4.0,14.0,38,0.00,,,0.00,meteohub,2013-01-20 00:01:00,
2013-01-19 18:07:00,56.1,30.9,30.09,WNW,286,4.0,14.0,38,0.00,,,0.00,meteohub,2013-01-20 00:07:00,
2013-01-19 18:12:00,55.9,30.7,30.09,WNW,293,3.0,14.0,38,0.00,,,0.00,meteohub,2013-01-20 00:12:00,
2013-01-19 18:17:00,55.8,31.1,30.09,NW,309,4.0,14.0,39,0.00,,,0.00,meteohub,2013-01-20 00:17:00,
2013-01-19 18:22:00,55.6,31.1,30.09,NW,326,6.0,13.0,39,0.00,,,0.00,meteohub,2013-01-20 00:22:00,
2013-01-19 18:27:00,55.2,31.3,30.09,West,274,3.0,13.0,40,0.00,,,0.00,meteohub,2013-01-20 00:27:00,
2013-01-19 18:32:00,55.0,31.1,30.10,NW,305,3.0,13.0,40,0.00,,,0.00,meteohub,2013-01-20 00:32:00,
2013-01-19 18:37:00,54.9,31.6,30.10,NNW,327,5.0,13.0,41,0.00,,,0.00,meteohub,2013-01-20 00:37:00,
2013-01-19 18:44:00,54.5,31.3,30.11,WNW,298,5.0,9.0,41,0.00,,,0.00,meteohub,2013-01-20 00:44:00,
2013-01-19 18:49:00,54.3,31.1,30.11,WNW,292,4.0,9.0,41,0.00,,,0.00,meteohub,2013-01-20 00:49:00,
2013-01-19 18:55:00,54.1,30.9,30.11,WNW,286,4.0,9.0,41,0.00,,,0.00,meteohub,2013-01-20 00:55:00,
2013-01-19 19:00:00,53.4,31.5,30.12,NW,318,4.0,9.0,43,0.00,,,0.00,meteohub,2013-01-20 01:00:00,
2013-01-19 19:07:00,53.1,31.1,30.12,WNW,296,4.0,9.0,43,0.00,,,0.00,meteohub,2013-01-20 01:07:00,
2013-01-19 19:12:00,52.9,30.9,30.12,NW,305,5.0,9.0,43,0.00,,,0.00,meteohub,2013-01-20 01:12:00,
2013-01-19 19:17:00,52.5,31.3,30.13,NW,308,3.0,9.0,44,0.00,,,0.00,meteohub,2013-01-20 01:17:00,
2013-01-19 19:22:00,52.5,31.3,30.13,NW,319,5.0,9.0,44,0.00,,,0.00,meteohub,2013-01-20 01:22:00,
2013-01-19 19:29:00,52.5,31.3,30.13,NW,315,5.0,9.0,44,0.00,,,0.00,meteohub,2013-01-20 01:29:00,
2013-01-19 19:37:00,52.3,31.6,30.14,NW,305,3.0,11.0,45,0.00,,,0.00,meteohub,2013-01-20 01:37:00,
2013-01-19 19:42:00,52.3,31.6,30.14,WNW,300,3.0,11.0,45,0.00,,,0.00,meteohub,2013-01-20 01:42:00,
2013-01-19 19:48:00,52.2,31.5,30.14,NW,311,7.0,11.0,45,0.00,,,0.00,meteohub,2013-01-20 01:48:00,
2013-01-19 19:53:00,52.0,31.8,30.15,North,355,3.0,8.0,46,0.00,,,0.00,meteohub,2013-01-20 01:53:00,
2013-01-19 20:00:00,51.6,31.5,30.15,NNW,332,3.0,8.0,46,0.00,,,0.00,meteohub,2013-01-20 02:00:00,
2013-01-19 20:05:00,51.3,31.1,30.16,WNW,302,0.0,9.0,46,0.00,,,0.00,meteohub,2013-01-20 02:05:00,
2013-01-19 20:12:00,50.9,31.5,30.16,WNW,303,2.0,9.0,47,0.00,,,0.00,meteohub,2013-01-20 02:12:00,
2013-01-19 20:20:00,50.7,31.3,30.16,NW,315,1.0,9.0,47,0.00,,,0.00,meteohub,2013-01-20 02:20:00,
2013-01-19 20:27:00,50.2,31.3,30.17,NW,324,1.0,5.0,48,0.00,,,0.00,meteohub,2013-01-20 02:27:00,
2013-01-19 20:32:00,50.0,31.1,30.17,NW,319,1.0,4.0,48,0.00,,,0.00,meteohub,2013-01-20 02:32:00,
2013-01-19 20:37:00,49.8,30.9,30.17,NW,313,0.0,4.0,48,0.00,,,0.00,meteohub,2013-01-20 02:37:00,
2013-01-19 20:42:00,49.8,30.9,30.17,NNW,332,1.0,4.0,48,0.00,,,0.00,meteohub,2013-01-20 02:42:00,
2013-01-19 20:48:00,49.8,30.9,30.17,NW,310,2.0,4.0,48,0.00,,,0.00,meteohub,2013-01-20 02:48:00,
2013-01-19 20:53:00,49.8,30.9,30.17,NNW,330,1.0,5.0,48,0.00,,,0.00,meteohub,2013-01-20 02:53:00,
2013-01-19 20:59:00,49.6,31.3,30.18,NNW,340,0.0,5.0,49,0.00,,,0.00,meteohub,2013-01-20 02:59:00,
2013-01-19 21:05:00,49.5,31.1,30.18,WNW,298,1.0,5.0,49,0.00,,,0.00,meteohub,2013-01-20 03:05:00,
2013-01-19 21:10:00,49.3,30.9,30.18,NW,324,4.0,6.0,49,0.00,,,0.00,meteohub,2013-01-20 03:10:00,
2013-01-19 21:17:00,49.1,31.3,30.18,NW,311,2.0,6.0,50,0.00,,,0.00,meteohub,2013-01-20 03:17:00,
2013-01-19 21:22:00,48.7,30.9,30.19,North,5,4.0,5.0,50,0.00,,,0.00,meteohub,2013-01-20 03:22:00,
2013-01-19 21:29:00,48.7,30.9,30.19,NW,312,2.0,5.0,50,0.00,,,0.00,meteohub,2013-01-20 03:29:00,
2013-01-19 21:37:00,48.2,30.9,30.19,NNW,336,1.0,5.0,51,0.00,,,0.00,meteohub,2013-01-20 03:37:00,
2013-01-19 21:42:00,47.8,30.6,30.19,NNW,346,1.0,5.0,51,0.00,,,0.00,meteohub,2013-01-20 03:42:00,
2013-01-19 21:48:00,47.7,30.9,30.19,NNW,336,5.0,5.0,52,0.00,,,0.00,meteohub,2013-01-20 03:48:00,
2013-01-19 21:53:00,47.7,30.9,30.20,WNW,300,3.0,6.0,52,0.00,,,0.00,meteohub,2013-01-20 03:53:00,
2013-01-19 22:01:00,47.3,31.1,30.20,NNW,338,0.0,6.0,53,0.00,,,0.00,meteohub,2013-01-20 04:01:00,
2013-01-19 22:07:00,46.9,31.1,30.20,NW,304,2.0,6.0,54,0.00,,,0.00,meteohub,2013-01-20 04:07:00,
2013-01-19 22:12:00,46.8,30.9,30.20,NW,311,1.0,6.0,54,0.00,,,0.00,meteohub,2013-01-20 04:12:00,
2013-01-19 22:17:00,46.2,30.9,30.21,WNW,302,2.0,6.0,55,0.00,,,0.00,meteohub,2013-01-20 04:17:00,
2013-01-19 22:22:00,46.0,30.7,30.21,NNE,19,1.0,6.0,55,0.00,,,0.00,meteohub,2013-01-20 04:22:00,
2013-01-19 22:27:00,45.9,31.1,30.21,NNE,24,7.0,7.0,56,0.00,,,0.00,meteohub,2013-01-20 04:27:00,
2013-01-19 22:32:00,45.3,30.9,30.22,NW,323,3.0,9.0,57,0.00,,,0.00,meteohub,2013-01-20 04:32:00,
2013-01-19 22:42:00,45.0,30.6,30.22,NW,322,2.0,9.0,57,0.00,,,0.00,meteohub,2013-01-20 04:42:00,
2013-01-19 22:48:00,44.8,30.9,30.22,NW,315,0.0,9.0,58,0.00,,,0.00,meteohub,2013-01-20 04:48:00,
2013-01-19 22:54:00,44.2,30.7,30.23,NNW,345,0.0,6.0,59,0.00,,,0.00,meteohub,2013-01-20 04:54:00,
2013-01-19 22:59:00,43.9,30.6,30.22,NW,315,3.0,6.0,59,0.00,,,0.00,meteohub,2013-01-20 04:59:00,
2013-01-19 23:00:00,43.7,30.7,30.22,NNW,336,3.0,4.0,60,0.00,,,0.00,meteohub,2013-01-20 05:00:00,
2013-01-19 23:01:00,43.7,30.7,30.22,NW,317,2.0,4.0,60,0.00,,,0.00,meteohub,2013-01-20 05:01:00,
2013-01-19 23:03:00,43.5,30.6,30.22,NW,306,2.0,4.0,60,0.00,,,0.00,meteohub,2013-01-20 05:03:00,
2013-01-19 23:08:00,43.3,30.4,30.23,WNW,300,3.0,4.0,60,0.00,,,0.00,meteohub,2013-01-20 05:08:00,
2013-01-19 23:14:00,43.2,30.2,30.23,WNW,303,2.0,4.0,60,0.00,,,0.00,meteohub,2013-01-20 05:14:00,
2013-01-19 23:19:00,43.3,30.0,30.23,NW,312,3.0,5.0,59,0.00,,,0.00,meteohub,2013-01-20 05:19:00,
2013-01-19 23:24:00,43.3,30.0,30.23,WNW,300,5.0,5.0,59,0.00,,,0.00,meteohub,2013-01-20 05:24:00,
2013-01-19 23:29:00,43.3,30.0,30.23,NW,304,2.0,5.0,59,0.00,,,0.00,meteohub,2013-01-20 05:29:00,
2013-01-19 23:34:00,43.3,30.0,30.23,North,355,5.0,7.0,59,0.00,,,0.00,meteohub,2013-01-20 05:34:00,
2013-01-19 23:39:00,43.2,30.2,30.23,WNW,301,2.0,7.0,60,0.00,,,0.00,meteohub,2013-01-20 05:39:00,
2013-01-19 23:44:00,43.0,30.0,30.23,NW,319,2.0,7.0,60,0.00,,,0.00,meteohub,2013-01-20 05:44:00,
2013-01-19 23:49:00,42.8,29.8,30.24,NW,313,4.0,6.0,60,0.00,,,0.00,meteohub,2013-01-20 05:49:00,
2013-01-19 23:54:00,42.4,29.5,30.24,NW,323,4.0,6.0,60,0.00,,,0.00,meteohub,2013-01-20 05:54:00,
2013-01-19 23:59:00,42.3,29.8,30.24,NW,306,2.0,6.0,61,0.00,,,0.00,meteohub,2013-01-20 05:59:00,